Weather Roundup
Issued by NWS

Home | Current Version | Previous Version | Text Only | Print | Product List | Glossary On
Versions: 1 2 3 4 5 6 7 8 9 10 11 12 13 14 15 16 17 18 19 20 21 22 23 24 25 26 27 28 29 30 31 32 33 34 35 36 37 38 39 40 41 42 43 44 45 46 47 48 49 50
000
NZUS93 KARX 200959
HRRWXR

CURRENT HOURLY OBSERVATIONS ACROSS
MUCH OF THE UPPER MISSISSIPPI VALLEY
NATIONAL WEATHER SERVICE LA CROSSE WI
400 AM CST SAT DEC 20 2014


...SOUTHEAST MINNESOTA...


CITY           SKY/WX    TMP DP  RH WIND       PRES   REMARKS
ROCHESTER      CLOUDY    27  25  92 S9        30.17S FOG     WCI  18
ROCHESTER/MAYO CLOUDY    28  24  82 S7        30.17F WCI  21
WINONA         CLOUDY    30  25  80 SE3       30.22F
AUSTIN         CLOUDY    27  27 100 S6        30.16S FOG     WCI  20
ALBERT LEA     FOG       28  28 100 S7        30.14F VSB 1   WCI  21
DODGE CENTER   CLOUDY    28  27  93 S10       30.15F FOG     WCI  19
PRESTON        LGT SNOW  26  24  92 S7        30.18F WCI  19
OWATONNA       MOCLDY    28  27  93 SE9       30.16S FOG     WCI  20
FARIBAULT      CLOUDY    28  27  93 S6        30.16S FOG     WCI  22
$$

...ELSEWHERE IN MINNESOTA...


CITY           SKY/WX    TMP DP  RH WIND       PRES   REMARKS
MINNEAPOLIS    CLOUDY    29  25  85 S8        30.16F FOG     WCI  21
INTNL FALLS    LGT SNOW  25  23  92 S6        30.06S FOG     WCI  18
DULUTH         LGT SNOW  25  22  88 S7        30.11F FOG     WCI  17
RED WING       CLOUDY    30  25  80 CALM      30.18F
REDWOOD FALLS  CLOUDY    32  28  85 S13       30.10S WCI  22
MANKATO        CLOUDY    30  27  86 S8        30.14S WCI  23
WORTHINGTON    CLOUDY    28  28 100 S10       30.07F WCI  19
FAIRMONT       CLOUDY    30  25  80 SW9       30.13S WCI  22
$$

...SOUTHWEST WISCONSIN...


CITY           SKY/WX    TMP DP  RH WIND       PRES   REMARKS
LA CROSSE      CLOUDY    30  23  75 S8        30.23S WCI  22
PRAIRIE DU CHI CLOUDY    28  24  82 E5        30.25S WCI  23
BOSCOBEL       CLOUDY    29  23  78 CALM      30.26S
LONE ROCK      NOT AVBL
PLATTEVILLE    CLOUDY    27  25  93 CALM      30.24F
FORT MC COY    CLOUDY    28  22  77 S3        30.24F
CAMP DOUGLAS   MIX PCPN  25  25 100 SE5       30.24S WCI  19
VIROQUA        CLOUDY    26  24  91 S6        30.21S WCI  20
WIS DELLS      NOT AVBL
$$

...ELSEWHERE IN WISCONSIN...


CITY           SKY/WX    TMP DP  RH WIND       PRES   REMARKS
MILWAUKEE      CLOUDY    27  19  72 SW6       30.27F WCI  20
MADISON        CLOUDY    26  22  84 S3        30.25F
GREEN BAY      MOCLDY    22  19  89 CALM      30.27F
EAU CLAIRE     CLOUDY    28  21  75 S6        30.20S WCI  22
BLACK RVR FLS  CLOUDY    28  23  79 CALM      30.22F
MEDFORD        CLOUDY    23  21  93 S5        30.19S FOG     WCI  17
WAUSAU         CLOUDY    23  21  92 S5        30.21S WCI  17
WIS RAPIDS     CLOUDY    24  20  84 S3        30.25F
MARSHFIELD     CLOUDY    24  22  91 S6        30.21S FOG     WCI  17
RICE LAKE      CLOUDY    27  23  84 SE7       30.19S WCI  20
$$

...NORTHEAST IOWA...


CITY           SKY/WX    TMP DP  RH WIND       PRES   REMARKS
DECORAH        CLOUDY    27  25  93 S6        30.20S WCI  20
MASON CITY     FOG       28  28 100 SE9       30.17F VSB 3/4 WCI  19
CHARLES CITY   CLOUDY    28  28 100 SE7       30.19F WCI  21
OELWEIN        CLOUDY    28  25  86 SE7       30.21S WCI  21
$$

...ELSEWHERE IN IOWA...


CITY           SKY/WX    TMP DP  RH WIND       PRES   REMARKS
DES MOINES     LGT SNOW  32  29  88 SW8       30.18S FOG     WCI  25
IOWA CITY      CLOUDY    30  24  78 SE6       30.24F WCI  24
FORT DODGE     CLOUDY    28  25  86 S7        30.16S WCI  21
$$

...NORTHERN ILLINOIS...


CITY           SKY/WX    TMP DP  RH WIND       PRES   REMARKS
CHICAGO-OHARE  CLOUDY    30  23  75 CALM      30.27S
CHICAGO-MIDWAY CLOUDY    32  25  75 SW5       30.28S WCI  27
MOLINE         CLOUDY    29  24  82 E5        30.25F WCI  24
ROCKFORD       CLOUDY    26  22  84 CALM      30.29F
PEORIA         CLOUDY    29  23  78 E3        30.27S
$$

NOTE: "FAIR" INDICATES FEW OR NO CLOUDS BELOW 12,000 FEET WITH NO
SIGNIFICANT WEATHER AND/OR OBSTRUCTIONS TO VISIBILITY. WIND
SPEEDS ARE IN MILES-PER-HOUR.



USA.gov is the U.S. government's official web portal to all federal, state and local government web resources and services.